Flag for U.S.A. Weather past 2 weeks in Dover, Delaware, U.S.A.

Now
71 °F

Sunny.


Feels Like: 75 °F
Forecast: 59 / 79 °F
Wind: 3 mph from North

Location: Dover Air Force Base

Current Time: Jul 30, 2014 at 10:51:49 AM

Latest Report: Jul 30, 2014 at 9:58 AM


Visibility: 10 mi

Pressure: 30.06 "Hg

Humidity: 66%

Dew point: 58 °F

Location of DoverLocation

Historic Weather in Dover — Graph

°F

Dover temperature yesterday

Maximum temperature yesterday: 75 °F (at 4:58 PM)
Minimum temperature yesterday: 63 °F (at 5:58 AM)
Average temperature yesterday: 69 °F

Past Weeks' High & Low Weather Summary

 TemperatureHumidityPressure
High91 °F (Jul 23, 3:58 PM)100% (Jul 15, 6:02 PM)30.23 "Hg (Jul 15, 6:02 PM)
Low60 °F (Jul 30, 6:58 AM)38% (Jul 18, 5:58 PM)29.56 "Hg (Jul 28, 4:58 AM)
Average73 °F79%29.96 "Hg
* Reported Jul 15 9:58 AM — Jul 30 9:58 AM, Dover, Weather by CustomWeather, © 2014

Note: Actual official high and low records may vary slightly from our data, if they occured in-between our weather recording intervals... More about our weather records

Advertising

Dover weather history for previous 24 hours

 ConditionsComfort  
Time TempWeatherWind HumidityBarometerVisibility
9:58 AM
Jul 30
71 °FSunny.3 mph66%30.06 "Hg10 mi
8:58 AM67 °FSunny.5 mph75%30.06 "Hg10 mi
7:58 AM64 °FSunny.6 mph79%30.04 "Hg10 mi
6:58 AM60 °FClear.5 mph85%30.03 "Hg10 mi
5:58 AM61 °FClear.8 mph81%30.01 "Hg10 mi
4:58 AM62 °FClear.8 mph82%29.99 "Hg10 mi
3:58 AM62 °FPassing clouds.7 mph82%29.98 "Hg10 mi
2:58 AM62 °FClear.6 mph90%29.97 "Hg10 mi
1:58 AM62 °FClear.2 mph89%29.98 "Hg10 mi
12:58 AM62 °FClear.3 mph87%29.97 "Hg10 mi
11:58 PM
Jul 29
64 °FClear.No wind84%29.98 "Hg10 mi
10:58 PM65 °FClear.5 mph80%29.97 "Hg10 mi
9:59 PM68 °FClear.5 mph69%29.98 "Hg10 mi
8:58 PM68 °FSunny.5 mph67%29.96 "Hg10 mi
7:58 PM70 °FSunny.6 mph60%29.96 "Hg10 mi
6:58 PM72 °FSunny.8 mph56%29.95 "Hg10 mi
5:58 PM74 °FBroken clouds.7 mph57%29.93 "Hg10 mi
4:58 PM75 °FPartly sunny.9 mph56%29.92 "Hg10 mi
3:58 PM74 °FBroken clouds.6 mph59%29.91 "Hg10 mi
2:58 PM74 °FScattered clouds.5 mph58%29.91 "Hg10 mi
1:58 PM74 °FBroken clouds.6 mph60%29.90 "Hg10 mi
12:58 PM74 °FPartly sunny.6 mph59%29.90 "Hg10 mi
11:58 AM72 °FPartly sunny.10 mph62%29.90 "Hg10 mi
10:58 AM72 °FSunny.8 mph62%29.91 "Hg10 mi
Weather by CustomWeather, © 2014

See weather overviewHow to use our weather pages